Hourly Data Report for March 30, 2018

OTTAWA INTL A
ONTARIO

45°19'00.000" N
75°40'00.000" W
114.90 m
6106001
71628
YOW

Download Data

Hourly Data (March 2018)
Hourly Data Report for March 30, 2018
TIME
LST
Temp Definition
°C
Dew Point Definition
°C
Rel Hum Definition
%
Precip. Amount Definition
mm

Wind Dir Definition
10's deg

Wind Spd Definition
km/h
Visibility Definition
km
Stn Press Definition
kPa
Hmdx Definition


Wind Chill Definition


Weather Definition


00:00 4.2 3.7 97   36 13 9.7 99.20     Rain, Fog
01:00 3.8 3.3 96   33 17 9.7 99.14     Rain, Fog
02:00 3.6 2.9 95   32 17 16.1 99.15     Rain
03:00 3.3 2.5 94   32 21 16.1 99.19     Rain
04:00 2.5 1.5 93   31 22 16.1 99.22     Rain
05:00 2.5 1.2 92   31 24 24.1 99.29     LegendNANA
06:00 2.3 1.3 93   29 14 24.1 99.41     Rain
07:00 2.4 1.5 94   29 13 24.1 99.47     Rain
08:00 2.6 1.7 93   29 19 24.1 99.59     LegendNANA
09:00 3.3 1.6 89   29 24 24.1 99.69     LegendNANA
10:00 4.6 1.7 81   29 22 24.1 99.78     Mostly Cloudy
11:00 4.5 1.1 79   29 35 24.1 99.81     LegendNANA
12:00 4.7 0.2 73   30 31 24.1 99.85     LegendNANA
13:00 5.3 -1.2 63   29 28 24.1 99.85     Mostly Cloudy
14:00 5.4 -2.9 55   28 31 24.1 99.85     LegendNANA
15:00 5.8 -4.2 48   28 23 24.1 99.89     LegendNANA
16:00 5.0 -5.9 45   28 24 24.1 99.98     Mostly Cloudy
17:00 3.8 -8.7 40   29 28 24.1 100.06     LegendNANA
18:00 3.3 -9.6 38   28 22 24.1 100.15     LegendNANA
19:00 2.4 -8.8 44   28 19 24.1 100.24     Mostly Cloudy
20:00 1.8 -9.1 44   29 20 24.1 100.34     LegendNANA
21:00 1.2 -9.5 45   29 14 24.1 100.39     LegendNANA
22:00 -0.1 -9.3 50   30 13 24.1 100.44   -4 Mostly Cloudy
23:00 -0.5 -11.4 44   33 8 24.1 100.49   -3 LegendNANA

Notes on Data Quality.

Legend

  • E = Estimated
  • M = Missing
  • NA = Not Available*
  • [empty] = Indicates an unobserved value
Date modified: